Overview Statistics Trail Chart Weather Telemetry Raw packets
 

This is the latest recevied weather packets stored in our database for station/object KE5QKR. If no packets are shown the sender has not sent any weather packets the latest 10 day(s).

<< 68 69 70 71 72 73 74 >>
Time Temp. Humidity Pressure Rain* Wind** Luminosity Snow
1777500738 26.11° C 81% 1008.9 hPa 0 mm - 49 W/m² -
1777500434 26.11° C 81% 1008.6 hPa 0 mm - 49 W/m² -
1777500130 26.67° C 80% 1008.7 hPa 0 mm - 47 W/m² -
1777499827 26.67° C 79% 1008.4 hPa 0 mm - 48 W/m² -
1777499523 26.67° C 79% 1008.4 hPa 0 mm - 50 W/m² -
1777499221 26.67° C 79% 1008.8 hPa 0 mm - 54 W/m² -
1777498918 26.67° C 78% 1008.7 hPa 0 mm - 67 W/m² -
1777498615 27.22° C 77% 1009.1 hPa 0 mm - 74 W/m² -
1777498310 27.22° C 77% 1009.1 hPa 0 mm - 80 W/m² -
1777498009 27.22° C 77% 1009 hPa 0 mm - 77 W/m² -
1777497705 27.78° C 75% 1009.2 hPa 0 mm - 97 W/m² -
1777497402 27.78° C 74% 1009.3 hPa 0 mm - 99 W/m² -
1777497097 28.33° C 74% 1009.5 hPa 0 mm - 106 W/m² -
1777496795 28.33° C 72% 1009.4 hPa 0 mm - 158 W/m² -
1777496491 28.33° C 73% 1009.6 hPa 0 mm - 186 W/m² -
1777496188 28.33° C 72% 1009.5 hPa 0 mm - 130 W/m² -
1777495884 28.89° C 71% 1009.6 hPa 0 mm - 205 W/m² -
1777495580 29.44° C 70% 1009 hPa 0 mm - 201 W/m² -
1777495275 30° C 69% 1009.2 hPa 0 mm - 236 W/m² -
1777494974 30° C 69% 1009.3 hPa 0 mm - 643 W/m² -
1777494670 30° C 69% 1009.4 hPa 0 mm - 275 W/m² -
1777494368 30° C 65% 1009.4 hPa 0 mm - 263 W/m² -
1777494064 30° C 66% 1009.5 hPa 0 mm - 631 W/m² -
1777493762 29.44° C 68% 1009.5 hPa 0 mm - 227 W/m² -
1777493460 30° C 67% 1009.7 hPa 0 mm - 600 W/m² -

* Rain latest hour (hover to see other rain measurements)
** Current wind speed in m/s (hover to see current wind gust speed)